Volver al catálogo

COSMOS 1159

ActivoMilitarLEO
NORAD 11694·PAYLOAD·🇷🇺 Russia

Lanzado Feb 11, 1980 desde Plesetsk Cosmodrome

Loading…

Próximos Pases (próximas 24 horas)

TLE

ActualizadoSource: Space-Track

Época: Sep 14, 2026, 13:42 UTC

1 11694U 80012D   26257.57112453 -.00000007  00000-0  55281-4 0  9995
2 11694  74.0215 197.3987 0017632 141.9119 329.5812 12.50128563126148

Sigue COSMOS 1159 en tiempo real con AllMySat

Download on the App Store